FORMOSAT-5 (42920 NORAD) Tracking and Keplerian Element Data

This shows tracking and keplerian element data for the satellite.

Feedback or suggestion? Click here.




ElementValue
Catalog42920
NameFORMOSAT-5
Epoch Orbit6439
Epoch Day315.85216066
Epoch Year2018
RAAN31.0926
Inclination98.3508
Eccentricity0.0009914
Argument of Perigee325.4791
Mean Anonmoly34.5764
Mean Motion14.50833179
Decay Rate1.436E-05
L11 42920U 17049A 18315.85216066 .00001436 00000-0 37540-3 0 9996
L22 42920 98.3508 31.0926 0009914 325.4791 34.5764 14.50833179 64399

Live tracking and technical data element details for FORMOSAT-5 (NORAD 42920). FORMOSAT-5 can be tracked NOW for your location showing map with azimuth and elevation plus other details from your city location.

Track the satellite on the map from your city or location and see movement details for azimuth, elevation, latitude, longitude, range, height, and movement on the map or in text.







IsCatalogInMostPopularTable: catalog: 42920, numindb: 160
Update: records affected: 1



GetName: 42920 FORMOSAT-5

Hit Count: updated at: Mon, 12 Nov 2018 17:31:49 GMT